Location: Contre
(49.7477°N, 2.0963°E)
Time: 13:28:20
(UTC+00:00)

Meteor 2-12 Rocket - Pass Details

Date: 06 August 2024
Orbit: 936 x 956 km, 82.5° (Epoch: 14 September)

Event Time Altitude Azimuth Distance (km) Brightness Sun altitude
Rises 02:57:51 0° 337° (NNW) 3,610 7.8 -12.7°
Reaches altitude 10° 03:01:21 10° 316° (NW) 2,663 6.8 -12.3°
Maximum altitude 03:04:46 16° 282° (WNW) 2,272 6.1 -11.9°
Enters shadow 03:07:35 12° 252° (WSW) 2,544 6.1 -11.6°
